Overview Statistics Trail Chart Weather Telemetry Raw packets
 

This is the latest recevied weather packets stored in our database for station/object K5SVV. If no packets are shown the sender has not sent any weather packets the latest 10 day(s).

<< 109 110 111 112 113 114 >>
Time Temp. Humidity Pressure Rain* Wind** Luminosity Snow
1787861977 37.78° C 38% 1013.3 hPa 0 mm - 310 W/m² -
1787861671 37.78° C 34% 1013.4 hPa 0 mm - 595 W/m² -
1787861370 38.33° C 37% 1013.4 hPa 0 mm - 745 W/m² -
1787861065 37.78° C 38% 1013.5 hPa 0 mm - 727 W/m² -
1787860763 37.78° C 42% 1013.3 hPa 0 mm - 708 W/m² -
1787860459 38.33° C 42% 1013.5 hPa 0 mm - 708 W/m² -
1787860158 37.78° C 41% 1013.5 hPa 0 mm - 650 W/m² -
1787859854 37.78° C 43% 1013.6 hPa 0 mm - 667 W/m² -
1787859549 37.22° C 43% 1013.6 hPa 0 mm - 690 W/m² -
1787859243 36.67° C 45% 1013.8 hPa 0 mm - 694 W/m² -
1787858940 36.67° C 44% 1013.8 hPa 0 mm - 678 W/m² -
1787858636 37.22° C 44% 1013.9 hPa 0 mm - 743 W/m² -
1787858330 37.22° C 43% 1014.1 hPa 0 mm - 724 W/m² -
1787858025 36.67° C 46% 1014.2 hPa 0 mm - 707 W/m² -
1787857721 37.22° C 44% 1014.1 hPa 0 mm - 725 W/m² -
1787857417 37.22° C 43% 1014.1 hPa 0 mm - 763 W/m² -
1787857115 37.22° C 46% 1014.1 hPa 0 mm - 719 W/m² -
1787856809 36.67° C 46% 1014.2 hPa 0 mm - 778 W/m² -
1787856504 36.67° C 46% 1014.1 hPa 0 mm - 756 W/m² -
1787856200 36.11° C 46% 1014.2 hPa 0 mm - 748 W/m² -
1787855894 36.11° C 46% 1014.6 hPa 0 mm - 764 W/m² -
1787855589 36.67° C 44% 1014.4 hPa 0 mm - 773 W/m² -
1787855284 36.11° C 47% 1014.6 hPa 0 mm - 754 W/m² -
1787854980 36.67° C 45% 1014.6 hPa 0 mm - 751 W/m² -
1787854675 36.11° C 46% 1014.6 hPa 0 mm - 775 W/m² -

* Rain latest hour (hover to see other rain measurements)
** Current wind speed in m/s (hover to see current wind gust speed)